Weather History for Buffalo, NY

Change the Weather History Date:

Wednesday, August 20, 2014

  Actual Average Record
Temperature  
Mean Temperature 72 °F 69 °F  
Max Temperature 78 °F 78 °F 90 °F (1959)
Min Temperature 66 °F 61 °F 47 °F (1977)
Degree Days  
Heating Degree Days 0 1  
Month to date heating degree days 10 5  
Since 1 June heating degree days 48 78  
Since 1 July heating degree days 20 14  
Cooling Degree Days 7 5  
Month to date cooling degree days 75 114  
Year to date cooling degree days 376 440  
Since 1 June cooling degree days 353 414  
Growing Degree Days 22 (Base 50)    
Moisture  
Dew Point 62 °F    
Average Humidity 72    
Maximum Humidity 84    
Minimum Humidity 59    
Precipitation  
Precipitation T in 0.10 in 1.72 in (1993)
Month to date precipitation 2.45 2.13  
Year to date precipitation 29.23 24.03  
Snow  
Snow 0.00 in 0.00 in 0.00 in ()
Month to date snowfall 0.0 0.0  
Since 1 June snowfall 0.0 0.0  
Since 1 July snowfall 0.0 0.0  
Snow Depth 0.00 in    
Sea Level Pressure  
Sea Level Pressure 29.88 in    
Wind  
Wind Speed 6 mph (South)    
Max Wind Speed 15 mph    
Max Gust Speed 19 mph    
Visibility 10 miles    
Events      
T = Trace of Precipitation, MM = Missing Value Source: NWS Daily Summary

Daily Weather History Graph

Daily Weather History Graph

Search for Another Location

Airport:

Trip Planner

Search our weather history database for the weather conditions in past years. The results will help you decide how hot, cold, wet, or windy it might be!

Date:

Astronomy

Aug. 20, 2014 Rise Set
Actual Time 6:26 AM EDT 8:09 PM EDT
Civil Twilight 5:56 AM EDT 8:39 PM EDT
Nautical Twilight 5:19 AM EDT 9:15 PM EDT
Astronomical Twilight 4:40 AM EDT 9:55 PM EDT
Moon 2:02 AM EDT (8/20) 4:55 PM EDT (8/20)
Length of Visible Light 14h 43m
Length of Day
13h 43m
Waning Crescent, 21% of the Moon is Illuminated
Aug 20
Waning Crescent
Aug 25
New
Sep 2
First Quarter
Sep 8
Full
Sep 15
Last Quarter

Hourly Weather History & Observations

Time (EDT) Temp. Dew Point Humidity Pressure Visibility Wind Dir Wind Speed Gust Speed Precip Events Conditions
12:54 AM 68.0 °F 54.0 °F 61% 29.84 in 10.0 mi SSE 6.9 mph - N/A   Mostly Cloudy
1:54 AM 66.9 °F 55.9 °F 68% 29.83 in 10.0 mi South 6.9 mph - N/A   Mostly Cloudy
2:54 AM 69.1 °F 57.9 °F 68% 29.83 in 10.0 mi South 6.9 mph - N/A   Mostly Cloudy
3:54 AM 69.1 °F 59.0 °F 70% 29.83 in 10.0 mi South 4.6 mph - N/A   Overcast
4:54 AM 69.1 °F 60.1 °F 73% 29.83 in 10.0 mi Calm Calm - N/A   Overcast
5:54 AM 69.1 °F 61.0 °F 75% 29.85 in 10.0 mi SSE 4.6 mph - N/A   Mostly Cloudy
6:54 AM 68.0 °F 61.0 °F 78% 29.86 in 10.0 mi Calm Calm - 0.00 in   Mostly Cloudy
7:54 AM 69.1 °F 62.1 °F 78% 29.88 in 10.0 mi South 3.5 mph - N/A   Mostly Cloudy
8:54 AM 71.1 °F 62.1 °F 73% 29.89 in 10.0 mi South 4.6 mph - 0.00 in   Mostly Cloudy
9:54 AM 72.0 °F 61.0 °F 68% 29.90 in 10.0 mi South 4.6 mph - N/A   Overcast
10:54 AM 73.9 °F 62.1 °F 66% 29.91 in 10.0 mi SSW 11.5 mph - N/A   Mostly Cloudy
11:54 AM 75.9 °F 62.1 °F 62% 29.91 in 10.0 mi WSW 6.9 mph - N/A   Mostly Cloudy
12:54 PM 75.0 °F 62.1 °F 64% 29.90 in 10.0 mi SSW 11.5 mph - N/A   Overcast
1:54 PM 75.9 °F 63.0 °F 64% 29.91 in 10.0 mi WSW 8.1 mph - N/A   Mostly Cloudy
2:54 PM 75.9 °F 63.0 °F 64% 29.90 in 10.0 mi SW 5.8 mph - N/A   Mostly Cloudy
3:54 PM 77.0 °F 64.0 °F 64% 29.89 in 10.0 mi South 8.1 mph - N/A   Mostly Cloudy
4:54 PM 75.9 °F 64.0 °F 67% 29.91 in 10.0 mi WSW 8.1 mph - N/A   Overcast
5:54 PM 77.0 °F 64.0 °F 64% 29.90 in 10.0 mi Variable 3.5 mph - 0.00 in   Mostly Cloudy
6:54 PM 75.9 °F 64.0 °F 67% 29.91 in 10.0 mi South 3.5 mph - N/A   Mostly Cloudy
7:54 PM 75.9 °F 64.0 °F 67% 29.90 in 10.0 mi SE 4.6 mph - N/A   Mostly Cloudy
8:54 PM 73.9 °F 64.0 °F 71% 29.89 in 10.0 mi SE 6.9 mph - N/A   Mostly Cloudy
9:54 PM 72.0 °F 64.9 °F 78% 29.91 in 10.0 mi South 4.6 mph - N/A   Mostly Cloudy
10:54 PM 72.0 °F 64.9 °F 78% 29.91 in 10.0 mi SW 5.8 mph - N/A   Mostly Cloudy
11:54 PM 70.0 °F 64.9 °F 84% 29.92 in 10.0 mi SSW 5.8 mph - N/A   Scattered Clouds